Location: Newark
(55.7681°N, 37.7103°E)
Time: 08:23:16
(UTC+00:00)

N. Korean satellite - Pass Details

Date: 28 October 2019
Orbit: 456 x 506 km, 97.2° (Epoch: 18 November)

Event Time Altitude Azimuth Distance (km) Brightness Sun altitude
Rises 02:53:58 0° 21° (NNE) 2,582 10.5 -13.4°
Reaches altitude 10° 02:56:13 10° 32° (NNE) 1,703 9.7 -13.1°
Maximum altitude 02:59:29 30° 95° (E) 923 8.8 -12.6°
Drops below altitude 10° 03:02:47 10° 158° (SSE) 1,710 9.7 -12.1°
Sets 03:05:03 0° 169° (S) 2,594 10.5 -11.8°
